FLOCK 4BE-11

Last updated on Mon Sep 16 2024 00:02:03 GMT+0000 (Coordinated Universal Time)

1 60501U 24149AK 24258.96320479 .00017721 00000+0 85461-3 0 9997 2 60501 97.4369 334.0559 0006355 36.9548 323.2123 15.18743031 4424
UTC large
Height (km)
Speed (km/s)
/
Latitude / Longitude
Inclination (degrees)
Orbital Period (minutes)
Azimuth
Elevation
Range (km)
Doppler Factor

Next 0 passes for location: London (51.5072 / 0.1276)

Sorry there are no passes over London.